Date,TemperatureHighF,TemperatureAvgF,TemperatureLowF,DewpointHighF,DewpointAvgF,DewpointLowF,HumidityHigh,HumidityAvg,HumidityLow,PressureMaxIn,PressureMinIn,WindSpeedMaxMPH,WindSpeedAvgMPH,GustSpeedMaxMPH,PrecipitationSumIn
2013-1-1,75.7,66.3,52.9,66.0,60.7,50.6,94,83,63,30.10,29.91,13,5,13,0.10
2013-1-2,67.8,55.5,47.8,65.1,49.1,41.9,92,80,62,30.14,29.92,10,6,10,0.01
2013-1-3,47.8,43.1,34.7,42.9,39.6,31.2,92,87,79,30.31,30.12,9,4,9,0.38
2013-1-4,56.3,42.8,32.5,38.5,33.9,28.8,92,73,42,30.37,30.28,9,3,9,0.00
2013-1-5,54.9,46.3,34.5,41.7,36.4,31.3,93,70,48,30.35,30.21,6,2,6,0.00
2013-1-6,55.8,49.8,45.5,44.9,41.2,37.5,84,73,58,30.25,30.15,8,3,8,0.00
2013-1-7,65.1,49.7,39.0,41.6,38.6,35.7,88,68,41,30.30,30.19,8,3,8,0.16
2013-1-8,64.4,55.8,44.8,55.8,48.2,38.0,85,76,66,30.25,30.15,5,2,5,0.00
2013-1-9,71.4,65.2,60.8,64.5,61.1,55.8,90,86,79,30.26,30.16,8,3,8,0.00
2013-1-10,73.4,68.3,63.7,67.4,64.7,61.0,93,88,79,30.25,30.12,12,6,12,0.10
2013-1-11,75.4,68.7,61.5,68.3,64.8,59.2,94,88,77,30.16,30.04,11,4,11,0.00
2013-1-12,77.4,69.7,65.3,66.0,64.6,62.4,94,84,65,30.11,29.98,12,6,12,0.00
2013-1-13,76.1,70.4,67.3,68.3,66.7,64.9,93,88,76,30.02,29.94,13,7,13,0.00
2013-1-14,75.2,70.6,68.9,70.2,67.7,66.2,93,91,82,30.08,30.00,10,6,10,0.46
2013-1-15,74.7,70.7,66.9,69.3,67.4,64.2,92,89,81,30.03,29.91,14,6,14,0.22
2013-1-16,73.6,62.8,49.8,69.2,60.2,47.9,93,91,82,29.97,29.89,10,4,10,1.04
2013-1-17,49.8,41.7,39.4,47.9,36.5,32.5,93,82,74,30.26,29.95,16,8,16,0.08
2013-1-18,60.6,43.9,31.6,41.6,34.6,29.3,92,72,41,30.48,30.25,10,3,10,0.00
2013-1-19,63.1,47.3,29.3,46.9,38.9,27.5,94,75,49,30.41,30.21,7,1,7,0.00
2013-1-20,69.6,51.0,36.9,48.7,41.8,35.1,93,74,41,30.23,30.07,8,1,8,0.00
2013-1-21,68.2,50.9,34.2,46.4,39.4,32.4,93,69,38,30.18,30.07,7,2,7,0.00
2013-1-22,60.6,45.9,33.8,38.1,32.2,26.1,91,63,31,30.34,30.16,8,2,8,0.00
2013-1-23,68.7,48.1,30.4,48.0,39.1,28.4,93,74,43,30.40,30.27,8,1,8,0.00
2013-1-24,75.4,56.5,38.7,55.4,48.1,36.9,94,76,47,30.32,30.19,10,2,10,0.00
2013-1-25,72.3,56.3,41.4,56.6,49.1,39.5,93,78,56,30.29,30.14,12,2,12,0.00
2013-1-26,74.1,57.1,46.8,59.8,51.7,44.6,94,84,59,30.23,30.14,7,1,7,0.00
2013-1-27,65.7,56.8,46.8,55.3,51.3,34.3,92,83,57,30.30,30.23,4,1,4,0.00
2013-1-28,72.1,62.3,53.4,62.7,57.8,51.1,93,86,72,30.29,30.15,8,2,8,0.00
2013-1-29,76.3,66.9,57.2,67.9,63.0,55.2,94,88,73,30.15,29.90,14,5,14,0.08
2013-1-30,77.4,64.3,44.4,70.6,60.1,34.1,93,86,64,30.04,29.60,26,10,26,0.92
2013-1-31,59.2,44.7,31.6,35.7,30.5,24.3,92,62,28,30.29,30.05,15,4,15,0.00
2013-2-1,35.1,33.4,32.0,33.3,31.6,30.2,93,93,91,30.31,30.28,0,0,0,0.00
2013-2-2,66.4,51.0,39.9,45.8,39.0,26.8,93,67,29,30.35,30.14,9,2,9,0.00
2013-2-3,68.5,51.4,37.6,49.0,38.5,29.2,93,68,24,30.22,30.07,10,2,10,0.07
2013-2-4,66.2,51.2,35.2,51.2,41.9,33.1,93,73,39,30.11,29.95,6,2,6,0.00
2013-2-5,67.1,58.4,52.7,60.4,55.0,50.7,93,89,74,30.02,29.93,7,1,7,0.18
2013-2-6,74.3,60.6,52.9,60.0,55.2,50.3,94,83,58,30.12,27.37,7,2,7,0.00
2013-2-7,74.1,62.1,53.4,63.5,57.4,50.4,94,85,62,30.02,29.76,20,3,20,2.29
2013-2-8,72.7,59.6,48.7,58.9,52.9,47.1,94,80,57,30.11,29.90,10,2,10,0.00
2013-2-9,70.7,54.2,42.1,49.2,43.3,38.2,92,70,34,30.23,30.11,9,3,9,0.00
2013-2-10,70.7,59.9,41.7,67.1,55.9,39.8,94,87,77,30.14,29.98,18,7,18,0.00
2013-2-11,77.4,65.9,57.2,70.9,62.8,54.9,93,90,75,30.06,29.98,12,5,12,1.66
2013-2-12,71.6,64.7,57.9,69.2,61.8,55.6,93,90,80,30.02,29.72,14,5,14,0.35
2013-2-13,69.8,57.5,46.2,67.7,52.0,43.4,93,83,55,30.02,29.73,13,4,13,0.16
2013-2-14,57.4,45.4,35.1,43.2,39.6,33.0,92,81,56,30.12,29.98,7,3,7,0.00
2013-2-15,67.5,49.1,31.1,47.2,38.2,29.3,94,71,34,30.14,29.99,7,2,7,0.00
2013-2-16,55.8,45.6,29.3,41.4,29.3,16.8,90,56,26,30.25,30.02,16,5,16,0.00
2013-2-17,58.5,39.3,23.7,31.0,24.3,15.5,91,62,23,30.37,30.24,8,2,8,0.00
2013-2-18,63.7,48.0,28.8,43.8,37.5,26.6,93,70,45,30.30,30.05,13,5,13,0.00
2013-2-19,68.2,59.1,36.3,60.2,47.1,28.4,92,67,30,30.17,29.97,12,5,12,0.49
2013-2-20,61.0,45.7,30.2,36.5,30.1,23.6,91,60,27,30.23,30.07,10,2,10,0.00
2013-2-21,67.8,53.4,32.4,61.4,43.3,-5.6,93,72,18,30.09,29.90,11,4,11,0.00
2013-2-22,70.3,66.9,64.4,69.1,65.1,61.4,96,94,90,29.94,29.84,10,3,10,2.15
2013-2-23,70.7,62.0,55.9,69.5,60.4,54.5,96,94,91,29.91,29.74,8,3,8,1.22
2013-2-24,73.0,60.8,49.5,57.0,51.9,48.1,95,75,48,29.96,29.81,8,3,8,0.79
2013-2-25,67.1,60.4,55.9,62.8,58.0,53.6,94,92,81,29.83,29.50,12,5,12,2.72
2013-2-26,66.2,58.3,50.2,64.7,49.3,42.9,95,73,50,29.87,29.46,10,5,10,0.58
2013-2-27,66.6,52.5,42.1,44.3,42.0,39.1,93,70,42,29.98,29.88,8,2,8,0.00
2013-2-28,62.4,50.6,40.5,41.7,36.3,30.3,93,61,32,30.03,29.93,10,4,10,0.00
2013-3-1,56.3,46.0,37.9,35.4,32.7,30.6,86,61,39,30.09,29.96,10,4,10,0.00
2013-3-2,52.3,43.1,37.8,33.6,28.7,24.8,72,58,37,30.14,30.02,16,6,16,0.00
2013-3-3,53.4,40.7,30.6,29.5,25.8,21.0,89,58,29,30.18,30.06,13,5,13,0.00
2013-3-4,65.3,48.7,28.8,47.8,38.1,26.8,93,70,31,30.19,29.99,13,3,13,0.00
2013-3-5,76.5,62.5,43.9,61.0,54.7,38.1,92,77,53,30.09,29.88,17,5,17,0.06
2013-3-6,58.8,47.1,37.2,38.1,31.2,26.3,89,57,32,30.23,30.08,15,6,15,0.00
2013-3-7,66.6,47.5,33.1,40.5,33.0,27.9,90,62,28,30.30,30.17,8,2,8,0.00
2013-3-8,75.0,52.5,31.1,42.7,36.5,29.0,93,62,20,30.28,30.14,8,2,8,0.00
2013-3-9,72.9,56.9,41.0,49.7,43.9,38.9,92,66,38,30.20,30.06,12,2,12,0.00
2013-3-10,73.6,62.4,51.6,59.1,52.3,40.4,88,70,51,30.09,29.98,17,6,17,0.00
2013-3-11,57.4,57.1,53.4,53.9,53.7,50.5,92,88,88,29.98,29.79,9,2,9,0.00
2013-3-12,48.9,44.5,41.5,38.8,37.0,36.0,83,75,65,30.14,30.11,8,1,8,0.00
2013-3-13,67.1,51.6,35.2,40.0,31.3,20.5,93,53,21,30.30,30.13,16,4,16,0.00
2013-3-14,65.7,48.4,33.3,36.3,27.9,21.4,87,51,19,30.41,30.23,11,3,11,0.00
2013-3-15,74.8,53.9,33.1,48.5,40.9,31.3,94,67,30,30.28,30.11,10,2,10,0.00
2013-3-16,77.2,60.2,41.4,57.5,50.5,39.5,94,74,42,30.11,29.96,14,3,14,0.00
2013-3-17,73.2,60.9,50.2,64.3,57.3,48.3,94,88,69,30.00,29.89,10,3,10,0.00
2013-3-18,79.7,68.0,57.6,69.0,63.1,55.9,95,85,70,29.92,29.77,12,4,15,0.00
2013-3-19,81.0,66.4,56.5,60.6,54.5,42.0,93,70,30,30.00,29.84,9,3,9,0.16
2013-3-20,66.7,61.2,54.3,45.9,36.1,31.9,69,40,29,30.06,29.93,10,5,10,0.03
2013-3-21,67.8,60.6,48.0,41.0,31.7,22.2,75,37,19,30.00,29.87,8,2,8,0.00
2013-3-22,64.2,55.5,48.6,47.7,40.5,32.3,79,58,44,29.97,29.86,7,2,7,0.00
2013-3-23,72.3,62.5,55.8,62.6,54.0,41.0,94,75,50,29.87,29.57,12,3,12,0.62
2013-3-24,85.6,71.9,50.2,70.2,58.3,32.3,94,66,27,29.84,29.50,16,7,16,0.10
2013-3-25,61.9,49.5,39.2,35.0,26.3,18.0,69,44,21,30.18,29.85,17,7,17,0.00
2013-3-26,57.6,45.0,33.6,27.5,25.2,22.8,69,48,28,30.33,30.17,13,6,13,0.00
2013-3-27,66.0,46.7,30.4,35.1,28.3,24.7,87,54,23,30.40,30.23,9,2,9,0.00
2013-3-28,74.5,51.3,29.8,40.4,34.0,27.1,93,60,19,30.34,30.19,9,2,9,0.00
2013-3-29,76.3,55.4,35.1,47.2,39.1,33.2,93,62,23,30.32,30.18,12,2,12,0.00
2013-3-30,78.4,60.4,44.1,57.8,51.2,41.9,94,75,43,30.21,30.03,13,3,13,0.00
2013-3-31,80.8,67.1,53.8,64.3,59.6,52.1,94,79,52,30.04,29.86,12,4,12,0.00
2013-4-1,77.7,66.7,52.2,63.3,57.7,48.7,94,75,45,30.00,29.86,12,4,12,0.00
2013-4-2,85.8,63.9,44.1,55.1,47.5,42.5,94,62,27,30.09,29.97,14,2,14,0.00
2013-4-3,61.7,57.4,53.6,58.1,53.6,49.6,93,87,73,30.05,29.78,12,3,12,0.72
2013-4-4,74.8,65.6,59.2,64.6,60.3,57.2,94,84,64,29.91,29.79,6,3,7,0.00
2013-4-5,66.4,56.4,45.0,58.5,49.8,42.8,92,80,55,30.05,29.83,14,5,14,0.00
2013-4-6,73.2,52.4,37.4,53.1,46.3,35.8,94,81,41,30.13,30.05,8,0,8,0.00
2013-4-7,78.4,62.1,44.4,63.7,55.5,42.8,94,80,59,30.14,30.02,12,3,12,0.00
2013-4-8,81.9,67.8,55.4,63.2,58.5,53.7,95,75,45,30.08,29.98,14,4,14,0.00
2013-4-9,84.6,70.1,57.6,63.1,59.7,55.6,94,72,48,30.09,29.97,14,4,14,0.00
2013-4-10,84.4,69.7,55.0,67.4,60.7,53.3,94,75,52,30.06,29.88,17,4,17,0.00
2013-4-11,80.2,72.6,65.8,72.7,68.8,62.1,94,88,78,29.88,29.58,22,7,22,1.24
2013-4-12,76.3,64.5,50.7,65.8,53.3,46.0,94,71,35,29.93,29.70,12,5,12,0.01
2013-4-13,82.9,65.4,43.9,55.4,48.2,42.3,94,60,26,30.01,29.85,8,2,8,0.01
2013-4-14,62.8,60.2,57.7,59.8,57.5,52.8,95,91,81,29.92,29.62,13,3,13,1.83
2013-4-15,83.8,69.8,59.2,72.5,64.6,57.8,95,84,67,30.03,29.82,7,3,7,0.00
2013-4-16,88.3,74.7,63.0,72.2,65.9,60.9,94,76,50,30.10,30.01,14,4,14,0.00
2013-4-17,88.3,73.0,63.9,72.2,65.8,60.6,94,79,59,30.12,30.00,9,2,9,0.00
2013-4-18,81.7,71.3,60.3,71.0,65.7,58.3,94,83,69,30.00,29.86,15,5,15,0.00
2013-4-19,75.7,61.7,49.1,71.9,57.9,47.1,93,87,77,30.10,29.80,13,6,13,0.56
2013-4-20,70.2,55.2,43.2,47.4,42.8,36.7,93,67,37,30.21,30.08,12,4,12,0.01
2013-4-21,78.6,60.4,39.0,53.1,45.5,37.4,94,63,34,30.19,30.08,12,3,12,0.00
2013-4-22,74.3,64.2,55.0,61.0,54.5,45.8,91,71,57,30.15,30.04,9,2,9,0.00
2013-4-23,81.5,66.8,52.2,62.7,57.1,50.2,93,74,50,30.11,30.01,9,3,9,0.00
2013-4-24,68.4,65.4,62.4,65.3,55.9,55.8,92,79,79,30.05,29.92,0,0,0,0.00
2013-4-25,82.8,68.7,58.8,65.4,57.5,39.3,93,70,45,30.03,29.92,8,3,0,0.00
2013-4-26,86.5,68.3,48.6,55.6,47.4,38.9,84,50,29,30.02,29.90,5,2,0,0.00
2013-4-27,81.0,68.1,53.1,67.7,61.2,50.4,92,80,64,29.95,29.71,13,3,0,0.00
2013-4-28,84.7,74.1,66.7,69.4,64.8,59.7,93,74,49,30.04,29.69,9,2,12,0.00
2013-4-29,84.8,70.5,63.9,70.8,64.1,59.6,93,81,50,29.96,29.87,7,1,12,0.08
2013-4-30,85.0,72.4,61.0,70.3,63.9,59.0,93,77,50,29.94,29.86,6,1,10,0.01
2013-5-1,69.6,67.9,66.0,65.8,64.3,62.3,92,88,81,29.97,29.86,8,3,10,0.31
2013-5-2,79.4,69.9,64.8,68.4,63.4,60.3,89,80,69,29.97,29.85,6,3,12,0.00
2013-5-3,71.1,67.2,63.5,64.7,62.2,60.6,92,84,76,29.91,29.77,7,2,13,0.26
2013-5-4,68.9,56.0,46.0,61.1,44.4,38.0,93,70,34,29.89,29.80,10,5,16,0.70
2013-5-5,76.6,58.8,41.9,58.3,44.4,39.0,93,64,29,29.93,29.75,10,3,17,0.02
2013-5-6,71.0,58.1,42.4,52.9,46.9,39.9,91,69,44,29.98,29.88,6,2,10,0.00
2013-5-7,77.4,63.5,49.0,59.7,54.4,46.7,93,74,50,30.01,29.90,6,2,9,0.00
2013-5-8,85.1,67.7,50.5,64.3,57.0,48.3,93,72,37,30.07,29.98,7,1,13,0.00
2013-5-9,86.3,70.5,57.0,66.2,60.2,55.0,93,73,43,30.12,30.02,7,1,9,0.00
2013-5-10,80.4,69.0,58.1,67.7,62.4,55.9,93,80,58,30.10,29.91,9,2,17,0.00
2013-5-11,75.8,67.8,59.1,68.1,63.7,56.8,93,87,76,30.03,29.91,3,1,6,0.20
2013-5-12,82.3,71.4,62.2,63.6,57.8,51.9,93,66,38,30.07,29.94,6,3,14,0.00
2013-5-13,81.2,65.6,49.1,52.0,44.6,37.2,86,52,23,30.23,30.07,7,3,12,0.00
2013-5-14,87.2,67.1,47.3,55.4,50.6,44.5,92,61,28,30.25,30.12,5,1,11,0.00
2013-5-15,89.2,69.2,51.6,64.2,54.5,49.1,92,65,33,30.19,29.91,7,1,11,0.00
2013-5-16,85.0,73.8,62.0,68.1,64.1,57.8,89,73,56,30.00,29.88,8,2,9,0.00
2013-5-17,82.1,70.0,61.2,70.7,64.2,59.2,94,83,64,30.04,29.96,7,1,10,0.00
2013-5-25,96.2,85.7,60.5,68.0,50.8,45.4,80,32,18,30.17,30.09,6,2,8,0.00
2013-5-26,92.3,77.5,56.7,70.8,58.6,52.9,89,58,34,30.19,29.94,5,2,7,0.00
2013-5-27,90.0,78.7,70.0,73.3,69.0,65.3,87,73,54,29.97,29.88,9,3,9,0.00
2013-5-28,90.0,85.1,77.0,75.6,70.0,66.3,81,61,51,29.97,29.88,9,5,12,0.09
2013-5-30,77.4,75.0,73.6,67.7,66.5,65.4,78,75,67,30.04,29.99,2,0,5,0.09
2013-5-31,91.0,78.2,70.3,73.0,69.0,65.3,88,74,53,30.06,29.97,12,3,15,0.10
2013-6-1,90.0,78.9,69.4,73.9,70.3,65.7,91,76,57,29.99,29.88,8,3,13,0.00
2013-6-2,95.9,79.2,68.5,74.6,70.4,65.8,93,76,47,29.96,29.81,6,2,10,0.20
2013-6-3,90.9,78.2,70.3,77.7,71.9,67.9,93,82,60,29.90,29.81,5,1,8,0.86
2013-6-4,93.0,79.1,68.7,77.6,72.1,66.6,93,80,57,29.93,29.86,7,1,10,0.01
2013-6-5,91.0,79.6,72.0,76.9,71.7,69.5,93,78,55,29.93,29.82,8,2,11,0.00
2013-6-6,87.4,77.5,70.3,73.8,70.6,67.2,93,80,60,29.89,29.66,7,2,10,0.01
2013-6-7,88.1,75.9,67.8,74.3,69.2,65.4,92,81,53,29.87,29.71,8,2,12,0.24
2013-6-8,78.4,72.5,67.1,75.3,69.8,65.3,94,91,83,29.99,29.86,1,0,3,0.00
2013-6-9,75.6,72.7,70.0,72.1,70.6,68.5,96,93,87,30.06,29.92,5,2,8,1.46
2013-6-10,81.9,74.3,71.1,78.8,72.0,70.0,98,93,75,30.06,29.96,5,1,8,0.28
2013-6-11,96.2,81.0,69.1,79.2,73.2,68.2,98,80,43,30.06,29.95,7,1,9,0.02
2013-6-12,98.2,83.5,70.0,78.9,73.3,69.4,98,75,42,30.05,29.94,5,1,7,0.01
2013-6-13,97.9,84.9,73.0,77.3,74.1,71.4,98,73,43,29.98,29.81,6,2,10,0.01
2013-6-14,95.9,83.8,74.1,76.2,72.8,66.0,92,71,46,29.90,29.80,6,2,10,0.00
2013-6-15,97.9,82.1,69.6,76.2,71.9,65.2,93,73,43,30.00,29.89,5,1,8,0.00
2013-6-16,94.6,82.1,73.6,80.1,75.7,72.7,99,82,58,30.03,29.95,9,2,11,0.00
2013-6-17,89.8,80.8,74.1,78.8,75.5,73.8,99,85,65,29.99,29.91,9,2,12,0.29
2013-6-18,87.7,80.7,76.1,76.3,74.5,72.6,94,82,66,29.98,29.87,5,2,7,0.00
2013-6-19,81.5,81.5,81.5,72.8,72.8,72.8,75,75,75,29.92,29.92,0,0,0,0.00
2013-7-8,90.7,82.3,73.9,77.9,72.8,73.3,98,84,62,29.96,29.91,5,1,0,0.02
2013-7-9,91.6,79.6,68.5,78.7,73.4,67.9,99,83,56,29.97,29.86,5,1,0,0.01
2013-7-10,92.5,78.1,70.7,80.1,74.1,69.8,97,88,60,29.91,29.79,6,1,0,0.00
2013-7-11,80.1,74.4,72.0,75.1,72.7,70.8,97,95,84,29.85,29.74,5,1,0,3.66
2013-7-12,92.3,78.3,70.5,77.2,72.6,69.0,95,84,57,29.82,29.73,5,1,0,0.53
2013-7-13,86.7,76.5,69.4,78.5,72.0,67.0,93,86,73,29.92,29.78,6,1,0,2.64
2013-7-14,85.3,76.1,67.5,76.9,72.0,65.4,93,88,76,29.98,29.85,8,1,0,0.04
2013-7-15,89.2,78.9,73.2,76.3,72.4,68.2,93,82,61,30.07,29.97,8,2,0,0.00
2013-7-16,92.5,79.5,72.3,76.4,72.4,68.3,92,80,55,30.09,30.01,7,2,0,0.33
2013-7-17,96.4,82.1,72.1,77.2,72.0,69.6,92,74,46,30.11,29.97,4,1,0,0.01
2013-7-18,91.4,76.7,70.9,78.8,71.5,66.5,92,84,63,30.02,29.89,6,1,0,0.87
2013-7-19,90.0,77.8,70.0,76.0,71.1,67.6,92,81,60,29.97,29.85,5,1,0,0.01
2013-7-20,86.4,76.2,72.1,77.2,72.3,69.3,91,88,73,29.92,29.84,6,1,0,0.60
2013-7-21,88.7,78.9,72.7,77.0,72.1,68.6,92,81,63,29.95,29.87,8,2,0,0.05
2013-7-22,90.1,76.7,71.6,77.1,71.8,68.8,91,85,65,29.95,29.89,6,2,0,1.04
2013-7-23,92.8,78.5,70.2,77.7,72.0,66.6,92,82,56,29.91,29.80,8,2,0,0.40
2013-7-24,87.4,77.8,70.3,77.8,72.4,67.5,92,84,71,29.82,29.74,8,2,0,0.47
2013-7-25,94.5,80.7,71.2,77.8,72.0,68.1,91,77,53,29.89,29.75,6,1,0,0.09
2013-7-26,94.5,82.3,70.9,73.3,69.9,66.1,91,69,41,29.95,29.85,8,1,0,0.00
2013-7-27,87.4,77.4,72.0,76.5,71.3,68.8,91,82,64,29.88,29.82,5,1,0,0.01
2013-7-28,90.9,79.0,72.9,78.8,72.7,69.6,91,81,66,29.92,29.81,8,2,0,1.14
2013-7-29,93.2,81.8,73.2,78.3,73.9,70.4,92,78,57,30.04,29.89,6,1,0,0.00
2013-7-30,94.8,82.6,72.9,79.0,73.6,70.1,91,76,53,30.07,29.96,6,1,0,0.00
2013-7-31,90.0,79.9,74.1,78.1,73.7,70.5,91,82,59,30.01,29.90,5,1,0,0.03
2013-8-1,87.4,78.6,73.6,77.2,73.5,70.8,91,85,71,29.91,29.83,5,1,0,0.15
2013-8-2,96.4,81.5,71.6,79.2,73.1,69.1,92,77,54,29.94,29.82,5,1,0,0.00
2013-8-3,94.6,83.3,72.7,78.0,73.6,69.3,91,74,54,29.96,29.88,5,1,0,0.00
2013-8-4,98.6,83.3,73.2,77.1,73.1,69.8,91,74,46,29.97,29.85,10,1,0,0.28
2013-8-5,96.8,83.4,72.9,76.6,72.6,69.7,92,72,47,29.93,29.83,6,1,0,0.00
2013-8-6,97.7,82.6,73.0,77.0,72.4,68.7,90,73,50,29.93,29.80,6,1,0,0.03
2013-8-7,99.1,82.2,71.4,77.7,71.9,68.6,91,73,42,29.89,29.81,6,1,0,0.01
2013-8-8,93.4,79.1,73.8,78.4,73.2,68.8,91,83,62,29.90,29.84,11,1,0,0.54
2013-8-9,94.5,82.2,73.9,78.7,73.5,71.4,92,77,50,29.98,29.87,8,1,0,0.00
2013-8-10,91.9,77.2,72.1,77.5,72.4,69.3,91,86,63,30.02,29.94,6,1,0,1.32
2013-8-11,93.7,82.6,71.4,86.8,72.0,68.9,92,77,54,30.05,29.97,7,1,0,0.00
2013-8-12,93.2,78.3,72.7,77.7,72.0,68.1,91,82,57,30.03,29.94,4,0,0,0.05
2013-8-13,90.1,77.9,71.4,76.7,71.7,68.6,92,82,64,29.94,29.85,8,1,0,0.06
2013-8-14,90.7,79.0,72.5,76.3,72.0,69.4,91,80,63,29.87,29.79,4,1,0,0.11
2013-8-15,90.7,77.4,72.7,78.2,72.7,69.9,92,86,65,29.88,29.80,5,1,0,1.04
2013-8-16,81.7,76.8,73.2,75.1,72.3,70.7,92,86,76,29.92,29.83,4,1,0,0.08
2013-8-17,74.3,72.1,69.1,71.3,69.5,66.3,93,92,88,29.95,29.86,5,1,0,2.74
2013-8-18,83.5,74.4,70.5,77.1,71.3,68.4,93,90,76,29.97,29.90,7,1,0,1.36
2013-8-19,91.0,79.5,69.1,76.4,71.4,66.7,93,78,58,29.96,29.87,8,2,0,0.02
2013-8-20,86.7,76.5,71.8,75.7,71.4,69.3,92,85,66,30.02,29.90,5,1,0,0.17
2013-8-21,93.4,76.7,70.5,76.2,70.7,67.2,92,83,55,30.05,29.96,8,1,0,1.73
2013-8-22,88.5,75.1,69.6,76.1,70.8,67.2,92,87,65,30.02,29.89,3,1,0,0.00
2013-8-23,83.5,75.7,70.5,75.5,71.1,68.1,92,86,71,29.95,29.86,5,1,0,0.31
2013-8-24,81.1,73.6,72.1,73.2,70.2,69.5,92,89,76,30.05,29.93,4,0,0,0.11
2013-8-25,87.4,78.1,72.3,73.5,70.8,67.3,92,79,63,30.11,30.02,5,1,0,0.03
2013-8-26,89.8,78.3,68.2,67.2,63.6,59.0,79,62,42,30.12,30.00,5,1,0,0.00
2013-8-27,93.2,76.7,63.9,70.1,64.5,60.2,90,68,40,30.03,29.92,5,1,0,0.00
2013-8-28,93.0,79.4,66.4,71.5,67.5,63.7,91,69,46,29.98,29.89,4,0,0,0.00
2013-8-29,94.3,81.3,68.7,70.2,68.0,66.0,91,67,44,29.97,29.86,5,1,0,0.00
2013-8-30,94.3,82.1,70.7,72.8,70.1,67.5,90,69,49,29.93,29.79,6,1,0,0.00
2013-8-31,96.6,80.3,73.8,76.4,72.1,68.5,91,77,51,29.84,29.76,7,1,0,0.26
2013-9-1,97.5,79.2,71.1,76.7,70.6,66.6,92,77,48,29.84,29.76,6,1,0,0.01
2013-9-2,86.4,74.9,71.1,77.3,70.6,68.3,92,87,66,29.89,29.81,5,1,0,0.00
2013-9-3,87.4,74.5,68.9,77.4,70.5,66.5,92,88,68,29.90,29.80,5,1,0,0.13
2013-9-4,92.1,78.5,68.4,77.2,71.3,66.3,93,80,53,29.99,29.87,6,1,0,0.33
2013-9-5,95.9,81.2,70.3,76.0,70.8,67.8,92,73,47,30.03,29.93,6,1,0,0.00
2013-9-6,93.9,81.1,70.7,72.1,68.1,63.2,91,68,43,30.00,29.89,5,1,0,0.00
2013-9-7,93.2,78.0,67.8,73.3,68.4,64.6,91,74,49,29.95,29.88,6,1,0,0.04
2013-9-8,95.4,80.2,67.8,72.6,68.0,65.1,91,70,41,29.91,29.83,4,0,0,0.00
2013-9-9,97.5,80.4,67.5,72.5,68.0,64.8,91,69,42,29.97,29.87,6,1,0,0.16
2013-9-10,93.7,80.2,70.3,74.0,68.6,65.0,92,71,42,30.04,29.94,5,1,0,0.00
2013-9-11,93.0,78.2,70.5,70.3,66.9,63.1,89,71,41,30.04,29.93,5,1,0,0.00
2013-9-12,96.6,81.2,70.9,71.7,67.8,65.8,87,67,40,29.95,29.81,4,1,0,0.00
2013-9-13,97.7,80.7,67.6,71.2,66.9,64.4,91,67,35,29.84,29.70,5,1,0,0.00
2013-9-14,92.1,79.6,71.4,68.9,64.6,59.0,85,62,44,29.90,29.75,6,1,0,0.00
2013-9-15,99.5,80.8,65.8,70.4,64.9,58.6,82,60,39,29.97,29.88,6,1,0,0.00
2013-9-16,95.9,78.5,71.8,74.5,70.4,66.2,90,78,47,29.99,29.94,3,0,0,0.02
2013-9-17,97.0,79.9,69.8,74.3,69.9,65.3,91,74,46,29.98,29.87,7,1,0,0.83
2013-9-18,88.9,77.8,70.9,72.2,69.7,66.9,91,77,57,30.01,29.92,4,1,0,0.03
2013-9-19,93.2,79.3,68.2,70.2,66.5,63.8,86,67,46,30.00,29.89,5,1,0,0.00
2013-9-20,91.8,79.5,68.7,72.2,67.3,61.4,82,67,52,29.94,29.78,9,2,0,0.00
2013-9-21,79.9,75.3,72.9,74.2,71.6,69.4,92,89,80,29.78,29.64,6,1,0,1.96
2013-9-22,80.2,73.1,68.9,71.9,69.3,66.5,92,88,75,29.72,29.63,5,1,0,1.00
2013-9-23,91.4,77.1,71.2,76.2,71.8,68.4,92,84,60,29.80,29.68,6,1,0,0.88
2013-9-24,84.4,76.5,71.1,75.6,72.4,68.7,92,88,75,29.81,29.66,12,1,0,1.70
2013-9-25,89.4,77.4,69.6,75.6,69.7,65.4,93,79,53,29.71,29.63,7,1,0,0.00
2013-9-26,84.9,72.7,64.9,72.7,66.4,62.2,92,82,62,29.87,29.70,6,1,0,0.00
2013-9-27,85.3,72.2,61.9,66.7,61.6,56.4,91,72,48,29.95,29.86,5,1,0,0.00
2013-9-28,85.5,71.4,59.2,66.9,60.1,55.6,89,70,48,30.01,29.92,6,1,0,0.00
2013-9-29,87.8,71.6,59.2,65.1,59.1,52.6,85,66,45,29.97,29.85,5,1,0,0.00
2013-9-30,88.3,74.6,65.7,68.8,63.0,59.1,85,69,48,29.91,29.82,4,0,0,0.00
2013-10-1,90.3,76.4,64.9,70.3,64.7,60.7,90,69,47,29.98,29.88,4,0,0,0.00
2013-10-2,79.7,73.4,69.3,71.2,66.6,62.9,91,80,68,29.99,29.92,3,0,0,0.16
2013-10-3,90.9,76.0,66.0,71.3,66.9,63.3,92,75,51,29.99,29.90,5,1,0,0.01
2013-10-4,93.9,78.5,67.8,72.6,68.7,65.1,91,74,47,29.99,29.91,6,1,0,0.07
2013-10-5,92.7,78.0,70.5,73.4,69.9,66.1,92,78,51,29.96,29.86,7,1,0,0.02
2013-10-6,79.5,72.5,69.1,72.5,69.1,66.4,92,89,78,29.86,29.71,4,1,0,1.62
2013-10-7,79.7,69.9,61.9,68.8,59.4,50.3,92,71,51,29.86,29.71,9,3,0,0.00
2013-10-8,84.9,69.4,54.9,66.9,57.4,47.6,85,66,53,29.91,29.83,5,1,0,0.00
2013-10-9,77.4,68.2,60.8,64.7,60.9,57.2,88,78,64,30.03,29.90,4,1,0,0.00
2013-10-10,86.0,69.8,56.8,67.3,60.3,54.2,92,74,48,30.02,29.90,5,1,0,0.00
2013-10-11,87.6,71.2,59.4,67.9,60.0,56.5,92,71,39,29.98,29.87,7,1,0,0.00
2013-10-12,87.1,71.6,57.6,68.4,60.8,55.0,91,72,42,29.99,29.90,5,1,0,0.00
2013-10-13,86.7,71.9,58.3,64.9,59.9,55.7,91,69,42,30.06,29.96,8,1,0,0.00
2013-10-14,88.3,72.4,59.7,67.3,60.7,56.2,90,69,44,30.03,29.92,5,1,0,0.00
2013-10-15,86.0,70.0,60.4,66.5,60.2,56.0,90,73,50,29.98,29.87,4,1,0,0.00
2013-10-16,87.3,70.6,56.3,65.3,60.3,53.7,91,73,45,29.94,29.82,4,1,0,0.00
2013-10-17,83.8,72.5,62.1,71.1,66.0,59.4,91,81,60,29.88,29.78,8,1,0,0.37
2013-10-18,78.1,69.6,65.3,67.9,63.6,61.7,90,82,67,30.00,29.83,5,1,0,0.01
2013-10-19,74.1,67.6,63.3,64.7,60.8,55.5,91,79,66,30.00,29.90,6,1,0,0.00
2013-10-20,78.8,65.0,57.0,60.1,55.9,52.3,90,74,50,30.05,29.96,4,1,0,0.00
2013-10-21,73.0,64.8,57.7,62.8,57.9,53.0,90,79,69,30.06,29.96,3,0,0,0.00
2013-10-22,74.8,66.8,60.4,63.9,61.4,55.0,92,83,67,29.97,29.87,5,1,0,0.12
2013-10-23,73.8,61.7,46.6,54.4,47.1,38.1,85,62,29,30.11,29.93,10,2,0,0.00
2013-10-24,79.7,58.5,41.4,50.7,44.5,39.0,91,65,28,30.23,30.11,4,0,0,0.00
2013-10-25,67.1,54.4,47.1,49.0,41.8,31.9,90,65,34,30.37,30.19,7,2,0,0.00
2013-10-26,75.2,54.8,37.8,46.0,37.0,30.5,88,55,24,30.31,30.17,5,1,0,0.00
2013-10-27,81.3,59.3,41.0,52.7,46.2,38.3,91,66,34,30.19,30.08,4,0,0,0.00
2013-10-28,84.2,63.9,49.5,59.3,51.4,46.7,91,68,35,30.22,30.12,4,0,0,0.00
2013-10-29,86.4,64.9,47.7,60.3,53.7,45.2,91,71,37,30.28,30.17,6,0,0,0.00
2013-10-30,83.3,66.1,53.1,65.6,57.6,50.5,92,76,51,30.24,30.11,6,1,0,0.00
2013-10-31,81.5,69.8,57.7,70.9,64.9,54.8,92,85,68,30.10,29.89,10,2,0,0.07
2013-11-1,75.7,70.5,60.3,72.6,67.3,58.3,93,90,82,29.89,29.78,7,2,0,0.58
2013-11-2,77.9,62.3,48.4,57.7,49.1,39.8,93,66,31,30.09,29.88,8,2,0,0.02
2013-11-3,72.0,55.2,42.3,46.0,40.3,37.0,90,60,33,30.24,30.09,6,1,0,0.00
2013-11-4,76.8,58.9,40.8,53.8,46.5,38.4,91,66,43,30.29,30.20,4,1,0,0.00
2013-11-5,78.3,64.1,52.7,57.6,48.6,39.6,63,57,47,30.30,30.17,4,1,0,0.00
2013-11-6,84.0,67.8,55.4,64.5,56.0,45.2,86,67,52,30.19,30.06,7,1,0,0.00
2013-11-7,66.7,59.0,47.5,63.7,53.3,38.2,91,82,69,30.23,30.04,10,2,0,0.44
2013-11-8,67.1,54.3,41.4,40.1,37.9,35.0,85,57,35,30.28,30.17,8,2,0,0.00
2013-11-9,74.8,56.6,39.0,55.7,46.9,35.8,90,72,50,30.27,30.16,4,0,0,0.00
2013-11-10,79.2,61.1,47.7,59.9,51.3,44.9,91,73,47,30.26,30.15,5,1,0,0.00
2013-11-11,79.2,58.9,42.3,51.1,46.3,39.9,91,68,31,30.24,30.12,3,0,0,0.00
2013-11-12,74.5,55.4,41.4,49.7,41.2,22.2,91,62,39,30.41,30.13,13,3,0,0.00
2013-11-13,58.6,41.9,28.9,26.7,21.9,18.5,85,48,25,30.49,30.40,8,3,0,0.00
2013-11-14,70.5,48.2,26.6,46.8,35.4,21.7,87,64,41,30.44,30.21,5,1,0,0.00
2013-11-15,67.8,60.6,54.1,57.7,51.8,42.6,88,73,65,30.21,30.04,6,1,0,0.00
2013-11-16,74.1,66.7,59.4,63.7,60.4,56.2,90,81,68,30.13,30.02,5,1,0,0.00
2013-11-17,80.6,72.7,67.3,71.7,67.6,62.7,92,84,72,30.02,29.92,7,2,0,0.00
2013-11-18,75.2,69.7,55.2,71.6,63.6,39.3,93,82,51,30.04,29.93,5,1,0,0.83
2013-11-19,69.6,55.0,43.9,43.5,39.2,35.7,89,57,39,30.12,30.00,6,2,0,0.00
2013-11-20,73.9,56.9,42.6,55.7,46.5,38.8,89,69,53,30.18,30.06,6,1,0,0.00
2013-11-21,68.5,61.1,52.7,56.5,51.3,44.2,78,70,64,30.25,30.17,3,1,0,0.00
2013-11-22,72.9,65.0,59.5,64.1,60.1,54.9,92,84,73,30.26,30.12,4,0,0,0.00
2013-11-23,72.1,63.2,52.2,63.3,57.1,40.4,91,81,64,30.23,30.11,9,3,0,0.00
2013-11-24,58.3,48.3,41.4,39.8,30.3,23.9,67,51,31,30.36,30.22,8,3,0,0.00
2013-11-25,59.0,50.0,39.9,51.1,37.3,28.0,89,62,56,30.34,29.98,4,1,0,0.11
2013-11-26,71.4,56.6,46.4,68.6,53.9,43.9,92,91,87,29.99,29.65,14,4,0,1.95
2013-11-27,49.1,40.7,30.0,42.7,31.1,20.7,90,70,44,30.37,29.86,12,4,0,0.03
2013-11-28,52.3,36.2,25.5,29.8,22.8,17.9,90,62,30,30.48,30.36,6,1,0,0.00
2013-11-29,62.8,41.5,25.7,36.8,29.0,22.9,90,67,29,30.52,30.40,6,1,0,0.00
2013-11-30,70.3,47.3,28.4,44.3,35.5,26.0,91,69,30,30.45,30.27,3,0,0,0.00
2013-12-1,68.5,53.4,40.5,52.8,45.1,37.5,91,75,52,30.29,30.03,4,0,0,0.00
2013-12-2,73.0,57.2,44.4,54.2,48.1,41.7,91,74,44,30.03,29.81,6,1,0,0.00
2013-12-3,78.6,63.9,48.7,64.8,56.7,46.2,92,79,57,29.88,29.79,11,1,0,0.00
2013-12-4,78.8,67.5,58.5,69.5,64.4,56.2,93,90,70,29.99,29.88,10,1,0,2.56
2013-12-5,79.7,73.8,70.9,71.4,69.8,68.8,93,87,76,30.06,29.98,9,4,0,0.02
2013-12-6,80.1,74.9,70.5,71.2,69.6,65.1,89,84,74,30.09,30.00,13,4,0,0.00
2013-12-7,67.8,52.0,48.4,62.4,47.4,43.8,90,84,79,30.27,30.09,7,3,0,0.00
2013-12-8,72.0,61.8,48.9,67.9,59.2,46.4,93,91,85,30.22,30.08,6,2,0,0.00
2013-12-9,73.6,69.4,64.9,70.1,66.8,62.5,93,91,87,30.10,30.03,7,1,0,0.85
2013-12-10,68.4,53.2,41.7,66.6,49.2,36.3,94,86,72,30.34,30.02,12,4,0,0.05
2013-12-11,67.6,51.8,35.2,47.8,39.8,30.0,82,65,46,30.39,30.28,5,1,0,0.00
2013-12-12,60.8,46.9,30.7,37.9,29.8,20.9,80,54,25,30.48,30.35,7,2,0,0.00
2013-12-13,61.9,46.9,31.1,41.8,32.0,21.4,70,57,34,30.38,30.07,4,0,0,0.00
2013-12-14,75.2,64.6,51.6,64.2,55.7,41.8,80,73,62,30.08,29.84,12,2,0,0.01
2013-12-15,58.5,44.4,31.6,53.5,36.5,27.0,86,74,63,30.29,29.91,11,4,0,0.04
2013-12-16,62.4,42.0,28.8,37.8,31.5,25.2,89,70,34,30.33,30.23,6,1,0,0.00
2013-12-17,67.3,45.1,28.8,43.0,33.4,26.2,91,69,29,30.33,30.20,5,1,0,0.00
2013-12-18,66.0,45.6,31.6,41.3,33.4,29.3,91,68,31,30.38,30.27,5,1,0,0.00
2013-12-19,69.4,48.7,30.0,51.8,40.2,27.4,91,75,45,30.30,30.16,5,1,0,0.00
2013-12-20,75.2,60.9,46.2,64.3,55.9,43.4,92,84,69,30.17,30.05,7,1,0,0.00
2013-12-21,74.3,70.5,63.5,69.7,67.4,61.4,93,90,85,30.04,29.91,13,5,0,0.02
2013-12-22,76.3,70.4,54.9,71.8,66.9,52.3,91,89,86,30.09,29.91,13,5,0,0.72
2013-12-23,55.9,50.5,40.3,53.3,46.8,34.3,93,87,79,30.37,30.07,10,3,0,0.99
2013-12-24,54.0,40.1,28.2,33.6,28.5,22.5,86,66,37,30.47,30.34,10,3,0,0.00
2013-12-25,55.4,42.1,28.4,35.0,28.5,21.0,79,60,38,30.40,30.26,4,1,0,0.00
2013-12-26,60.3,48.5,37.6,44.4,37.0,31.4,84,65,53,30.33,30.23,6,2,0,0.00
2013-12-27,62.2,51.8,42.3,40.6,36.3,32.7,70,56,41,30.38,30.26,5,1,0,0.00
2013-12-28,56.5,50.7,46.4,54.5,46.8,37.9,93,87,58,30.27,29.88,10,1,0,2.86
2013-12-29,54.1,48.3,39.4,49.8,45.2,37.3,93,89,80,30.13,29.89,6,2,0,0.00
2013-12-30,59.5,48.2,36.3,50.4,44.1,34.2,93,86,68,30.27,30.13,1,0,0,0.00
2013-12-31,50.0,46.6,45.0,47.3,41.9,39.8,91,84,78,30.41,30.27,5,1,0,0.00
2014-1-1,61.2,50.7,44.4,53.1,46.8,40.5,93,87,73,30.33,30.07,3,0,0,0.16
2014-1-2,59.4,50.5,34.9,55.7,45.5,26.8,93,83,70,30.28,29.90,12,3,0,0.12